TimeEDT,TemperatureF,Dew PointF,Humidity,Sea Level PressureIn,VisibilityMPH,Wind Direction,Wind SpeedMPH,Gust SpeedMPH,PrecipitationIn,Events,Conditions,WindDirDegrees,DateUTC
12:54 AM,27.0,14.0,58,29.82,10.0,NW,17.3,31.1,N/A,,Overcast,310,2013-04-04 04:54:00
1:54 AM,26.1,14.0,60,29.82,10.0,WNW,11.5,18.4,N/A,,Mostly Cloudy,290,2013-04-04 05:54:00
2:54 AM,25.0,12.9,60,29.84,10.0,West,6.9,-,N/A,,Partly Cloudy,270,2013-04-04 06:54:00
3:54 AM,24.1,12.0,60,29.86,10.0,West,6.9,-,N/A,,Clear,270,2013-04-04 07:54:00
4:54 AM,24.1,10.9,57,29.90,10.0,West,6.9,-,N/A,,Clear,260,2013-04-04 08:54:00
5:54 AM,23.0,10.9,60,29.92,10.0,WNW,11.5,19.6,N/A,,Clear,290,2013-04-04 09:54:00
6:54 AM,23.0,8.1,53,29.95,10.0,West,8.1,-,N/A,,Clear,280,2013-04-04 10:54:00
8:54 AM,28.0,3.0,34,29.99,10.0,NW,16.1,24.2,N/A,,Clear,310,2013-04-04 12:54:00
9:54 AM,30.0,3.0,32,30.00,10.0,NW,20.7,26.5,N/A,,Clear,310,2013-04-04 13:54:00
10:54 AM,33.1,3.9,29,30.00,10.0,NW,12.7,18.4,N/A,,Clear,310,2013-04-04 14:54:00
11:54 AM,36.0,3.9,26,29.97,10.0,WNW,12.7,-,N/A,,Clear,290,2013-04-04 15:54:00
12:54 PM,37.0,3.0,24,29.96,10.0,West,12.7,18.4,N/A,,Clear,260,2013-04-04 16:54:00
1:54 PM,39.9,3.9,22,29.94,10.0,West,10.4,18.4,N/A,,Clear,260,2013-04-04 17:54:00
2:54 PM,42.1,5.0,22,29.90,10.0,WSW,15.0,26.5,N/A,,Clear,240,2013-04-04 18:54:00
3:54 PM,43.0,9.0,25,29.88,10.0,WSW,13.8,23.0,N/A,,Overcast,240,2013-04-04 19:54:00
4:54 PM,43.0,10.0,26,29.87,10.0,WSW,17.3,27.6,N/A,,Clear,240,2013-04-04 20:54:00
5:54 PM,42.1,10.9,28,29.86,10.0,SW,12.7,23.0,N/A,,Partly Cloudy,230,2013-04-04 21:54:00
6:54 PM,41.0,12.0,31,29.86,10.0,SW,9.2,-,N/A,,Overcast,230,2013-04-04 22:54:00
7:54 PM,41.0,15.1,35,29.88,10.0,West,19.6,31.1,N/A,,Overcast,260,2013-04-04 23:54:00
8:54 PM,37.9,23.0,55,29.91,10.0,West,10.4,27.6,N/A,,Overcast,270,2013-04-05 00:54:00
9:54 PM,37.0,26.1,65,29.91,10.0,WSW,19.6,28.8,N/A,,Overcast,250,2013-04-05 01:54:00
10:54 PM,36.0,28.0,73,29.88,10.0,West,10.4,23.0,N/A,,Overcast,270,2013-04-05 02:54:00
11:54 PM,35.1,28.9,78,29.88,10.0,West,8.1,-,N/A,,Overcast,260,2013-04-05 03:54:00